Weather History for KJHW - October, 2014

Change the Weather History Date:

Sunday, October 5, 2014

  Actual Average Record
Temperature  
Mean Temperature 42 °F -  
Max Temperature 48 °F 63 °F 80 °F (2007)
Min Temperature 35 °F 39 °F 22 °F (1987)
Degree Days  
Heating Degree Days 24    
Moisture  
Dew Point 33 °F    
Average Humidity 76    
Maximum Humidity 93    
Minimum Humidity 53    
Precipitation  
Precipitation 0.00 in - - ()
Sea Level Pressure  
Sea Level Pressure 29.77 in    
Wind  
Wind Speed 11 mph (SSW)    
Max Wind Speed 16 mph    
Max Gust Speed 24 mph    
Visibility 10 miles    
Events      
Averages and records for this station are not official NWS values.
T = Trace of Precipitation, MM = Missing Value Source: NWS Daily Summary

Daily Weather History Graph

Daily Weather History Graph

Search for Another Location

Airport or City:

Trip Planner

Search our weather history database for the weather conditions in past years. The results will help you decide how hot, cold, wet, or windy it might be!

Date:

Astronomy

Oct. 05, 2014 Rise Set
Actual Time 7:18 AM EDT 6:51 PM EDT
Civil Twilight 6:50 AM EDT 7:19 PM EDT
Nautical Twilight 6:18 AM EDT 7:52 PM EDT
Astronomical Twilight 5:45 AM EDT 8:24 PM EDT
Moon 5:11 PM EDT (10/5) 3:49 AM EDT (10/5)
Length of Visible Light 12h 29m
Length of Day
11h 33m
Waxing Gibbous, 89% of the Moon is Illuminated
Oct 5
Waxing Gibbous
Oct 8
Full
Oct 15
Last Quarter
Oct 23
New
Oct 30
First Quarter

Hourly Weather History & Observations

Time (EDT) Temp. Windchill Dew Point Humidity Pressure Visibility Wind Dir Wind Speed Gust Speed Precip Events Conditions
12:15 AM 35.6 °F 27.1 °F 30.2 °F 81% 29.68 in 10.0 mi SSW 12.7 mph 19.6 mph N/A   Clear
12:35 AM 35.6 °F 27.5 °F 30.2 °F 81% 29.68 in 10.0 mi SSW 11.5 mph 19.6 mph N/A   Clear
12:55 AM 35.6 °F 26.6 °F 30.2 °F 81% 29.68 in 10.0 mi SSW 13.8 mph 20.7 mph N/A   Clear
1:15 AM 35.6 °F 28.6 °F 30.2 °F 81% 29.68 in 10.0 mi SSW 9.2 mph 18.4 mph N/A   Clear
1:35 AM 35.6 °F 28.0 °F 30.2 °F 81% 29.68 in 10.0 mi SSW 10.4 mph 17.3 mph N/A   Clear
1:55 AM 35.6 °F 27.5 °F 30.2 °F 81% 29.69 in 10.0 mi SSW 11.5 mph 18.4 mph N/A   Scattered Clouds
2:15 AM 35.6 °F 27.5 °F 30.2 °F 81% 29.69 in 10.0 mi South 11.5 mph 16.1 mph N/A   Mostly Cloudy
2:35 AM 35.6 °F 28.0 °F 30.2 °F 81% 29.69 in 10.0 mi South 10.4 mph - N/A   Overcast
2:55 AM 35.6 °F 28.0 °F 30.2 °F 81% 29.68 in 10.0 mi South 10.4 mph - N/A   Overcast
3:15 AM 35.6 °F 28.0 °F 30.2 °F 81% 29.68 in 10.0 mi SSW 10.4 mph 17.3 mph N/A   Overcast
3:35 AM 37.4 °F 29.8 °F 32.0 °F 81% 29.68 in 10.0 mi SSW 11.5 mph 20.7 mph N/A   Overcast
3:55 AM 37.4 °F 28.5 °F 32.0 °F 81% 29.68 in 10.0 mi SSW 15.0 mph 20.7 mph N/A   Overcast
4:15 AM 37.4 °F 30.8 °F 33.8 °F 87% 29.68 in 10.0 mi SSW 9.2 mph - N/A   Overcast
4:35 AM 37.4 °F 30.3 °F 33.8 °F 87% 29.68 in 10.0 mi SSW 10.4 mph 18.4 mph N/A   Overcast
4:55 AM 37.4 °F 29.3 °F 33.8 °F 87% 29.68 in 10.0 mi SSW 12.7 mph 17.3 mph N/A   Overcast
5:15 AM 37.4 °F 30.3 °F 33.8 °F 87% 29.68 in 10.0 mi SSW 10.4 mph 21.9 mph N/A   Overcast
5:35 AM 37.4 °F 30.3 °F 35.6 °F 93% 29.69 in 10.0 mi SSW 10.4 mph 17.3 mph N/A   Overcast
5:55 AM 37.4 °F 30.8 °F 33.8 °F 87% 29.70 in 10.0 mi SW 9.2 mph 19.6 mph N/A   Overcast
6:15 AM 37.4 °F 29.3 °F 35.6 °F 93% 29.70 in 10.0 mi SSW 12.7 mph 18.4 mph N/A   Overcast
6:35 AM 37.4 °F 29.3 °F 35.6 °F 93% 29.70 in 10.0 mi SSW 12.7 mph 18.4 mph N/A   Overcast
6:55 AM 37.4 °F 28.9 °F 35.6 °F 93% 29.71 in 10.0 mi SSW 13.8 mph 19.6 mph N/A   Overcast
7:15 AM 37.4 °F 28.9 °F 35.6 °F 93% 29.71 in 10.0 mi SSW 13.8 mph 20.7 mph N/A   Overcast
7:35 AM 37.4 °F 28.5 °F 35.6 °F 93% 29.72 in 10.0 mi SSW 15.0 mph 20.7 mph N/A   Overcast
7:55 AM 37.4 °F 28.2 °F 35.6 °F 93% 29.73 in 10.0 mi SW 16.1 mph 23.0 mph N/A   Overcast
8:15 AM 39.2 °F 31.2 °F 35.6 °F 87% 29.74 in 10.0 mi SSW 13.8 mph 21.9 mph N/A   Overcast
8:35 AM 39.2 °F 31.6 °F 35.6 °F 87% 29.75 in 10.0 mi SW 12.7 mph 21.9 mph N/A   Overcast
8:55 AM 39.2 °F 32.0 °F 35.6 °F 87% 29.76 in 10.0 mi SW 11.5 mph 19.6 mph N/A   Overcast
9:15 AM 39.2 °F 31.2 °F 35.6 °F 87% 29.76 in 10.0 mi SSW 13.8 mph 21.9 mph N/A   Overcast
9:35 AM 39.2 °F 31.2 °F 35.6 °F 87% 29.77 in 10.0 mi SSW 13.8 mph 18.4 mph N/A   Overcast
9:55 AM 39.2 °F 33.0 °F 35.6 °F 87% 29.77 in 10.0 mi SSW 9.2 mph 18.4 mph N/A   Overcast
10:15 AM 39.2 °F 33.6 °F 35.6 °F 87% 29.78 in 10.0 mi SSW 8.1 mph - N/A   Overcast
10:35 AM 39.2 °F 32.0 °F 35.6 °F 87% 29.78 in 10.0 mi SSW 11.5 mph - N/A   Overcast
10:55 AM 42.8 °F 37.5 °F 35.6 °F 76% 29.78 in 10.0 mi SSW 9.2 mph - N/A   Overcast
11:15 AM 42.8 °F 37.0 °F 35.6 °F 76% 29.78 in 10.0 mi SSW 10.4 mph 16.1 mph N/A   Overcast
11:35 AM 44.6 °F 38.4 °F 37.4 °F 76% 29.78 in 10.0 mi SSW 12.7 mph 16.1 mph N/A   Overcast
11:55 AM 44.6 °F 39.2 °F 35.6 °F 71% 29.78 in 10.0 mi SSW 10.4 mph 17.3 mph N/A   Mostly Cloudy
12:15 PM 44.6 °F 38.8 °F 35.6 °F 71% 29.78 in 10.0 mi SSW 11.5 mph 23.0 mph N/A   Overcast
12:35 PM 46.4 °F 40.7 °F 35.6 °F 66% 29.78 in 10.0 mi SSW 12.7 mph 16.1 mph N/A   Overcast
12:55 PM 46.4 °F 40.7 °F 33.8 °F 62% 29.79 in 10.0 mi SW 12.7 mph 19.6 mph N/A   Overcast
1:15 PM 46.4 °F 40.4 °F 35.6 °F 66% 29.78 in 10.0 mi SSW 13.8 mph 19.6 mph N/A   Overcast
1:35 PM 46.4 °F 40.1 °F 33.8 °F 62% 29.78 in 10.0 mi SSW 15.0 mph 23.0 mph N/A   Overcast
1:55 PM 46.4 °F 41.1 °F 33.8 °F 62% 29.78 in 10.0 mi SSW 11.5 mph 20.7 mph N/A   Overcast
2:15 PM 46.4 °F 39.8 °F 35.6 °F 66% 29.78 in 10.0 mi SSW 16.1 mph 24.2 mph N/A   Overcast
2:35 PM 48.2 °F - 35.6 °F 62% 29.78 in 10.0 mi SSW 15.0 mph 23.0 mph N/A   Overcast
2:55 PM 46.4 °F 39.8 °F 33.8 °F 62% 29.78 in 10.0 mi SSW 16.1 mph 23.0 mph N/A   Mostly Cloudy
3:15 PM 46.4 °F 40.4 °F 33.8 °F 62% 29.78 in 10.0 mi SSW 13.8 mph 21.9 mph N/A   Partly Cloudy
3:35 PM 46.4 °F 41.5 °F 33.8 °F 62% 29.78 in 10.0 mi SSW 10.4 mph 23.0 mph N/A   Clear
3:55 PM 48.2 °F - 33.8 °F 58% 29.79 in 10.0 mi SSW 12.7 mph 23.0 mph N/A   Partly Cloudy
4:15 PM 46.4 °F 41.1 °F 33.8 °F 62% 29.79 in 10.0 mi SSW 11.5 mph 19.6 mph N/A   Partly Cloudy
4:35 PM 44.6 °F 38.8 °F 32.0 °F 61% 29.80 in 10.0 mi SSW 11.5 mph 23.0 mph N/A   Partly Cloudy
4:55 PM 46.4 °F 41.1 °F 30.2 °F 53% 29.80 in 10.0 mi SSW 11.5 mph 23.0 mph N/A   Mostly Cloudy
5:15 PM 44.6 °F 38.4 °F 30.2 °F 57% 29.80 in 10.0 mi SW 12.7 mph 18.4 mph N/A   Mostly Cloudy
5:35 PM 44.6 °F 37.4 °F 32.0 °F 61% 29.81 in 10.0 mi SSW 16.1 mph 21.9 mph N/A   Mostly Cloudy
5:55 PM 44.6 °F 40.2 °F 32.0 °F 61% 29.81 in 10.0 mi SSW 8.1 mph 17.3 mph N/A   Overcast
6:15 PM 44.6 °F 39.7 °F 32.0 °F 61% 29.82 in 10.0 mi South 9.2 mph 16.1 mph N/A   Overcast
6:35 PM 44.6 °F 39.2 °F 30.2 °F 57% 29.82 in 10.0 mi South 10.4 mph - N/A   Scattered Clouds
6:55 PM 42.8 °F 38.0 °F 30.2 °F 61% 29.82 in 10.0 mi South 8.1 mph - N/A   Clear
7:15 PM 42.8 °F 38.6 °F 32.0 °F 66% 29.82 in 10.0 mi South 6.9 mph - N/A   Clear
7:35 PM 41.0 °F 36.4 °F 32.0 °F 70% 29.83 in 10.0 mi South 6.9 mph - N/A   Clear
7:55 PM 39.2 °F 34.2 °F 32.0 °F 75% 29.83 in 10.0 mi South 6.9 mph - N/A   Clear
8:15 PM 39.2 °F 34.2 °F 32.0 °F 75% 29.83 in 10.0 mi South 6.9 mph - N/A   Clear
8:35 PM 39.2 °F 35.0 °F 32.0 °F 75% 29.84 in 10.0 mi South 5.8 mph - N/A   Mostly Cloudy
8:55 PM 39.2 °F 35.9 °F 33.8 °F 81% 29.85 in 10.0 mi South 4.6 mph - N/A   Overcast
9:15 PM 39.2 °F 35.0 °F 33.8 °F 81% 29.85 in 10.0 mi South 5.8 mph - N/A   Overcast
9:35 PM 41.0 °F 38.0 °F 32.0 °F 70% 29.85 in 10.0 mi South 4.6 mph - N/A   Overcast
9:55 PM 41.0 °F 38.0 °F 33.8 °F 76% 29.85 in 10.0 mi South 4.6 mph - N/A   Overcast
10:15 PM 41.0 °F 37.1 °F 33.8 °F 76% 29.85 in 10.0 mi South 5.8 mph - N/A   Overcast
10:35 PM 41.0 °F 37.1 °F 33.8 °F 76% 29.85 in 10.0 mi South 5.8 mph - N/A   Overcast
10:55 PM 41.0 °F 37.1 °F 32.0 °F 70% 29.86 in 10.0 mi South 5.8 mph - N/A   Overcast
11:15 PM 42.8 °F 39.3 °F 32.0 °F 66% 29.85 in 10.0 mi South 5.8 mph - N/A   Overcast
11:35 PM 42.8 °F 38.6 °F 32.0 °F 66% 29.85 in 10.0 mi South 6.9 mph - N/A   Overcast
11:55 PM 42.8 °F 38.0 °F 32.0 °F 66% 29.84 in 10.0 mi South 8.1 mph - N/A   Overcast